{"data":{"norad_id":62380,"epoch":"2026-05-25T02:46:54.799392Z","epoch_age_seconds":68110,"freshness":"FRESH","line1":"1 62380U 24247D   26145.11591203  .00007749  00000+0  26785-3 0  9995","line2":"2 62380  44.9960  56.0589 0003011 130.7658 229.3488 15.30477781 79466","mean_motion":15.30477781,"eccentricity":0.0003011,"inclination_deg":44.996,"raan_deg":56.0589,"arg_perigee_deg":130.7658,"mean_anomaly_deg":229.3488,"bstar":0.00026785,"rev_number":7946,"period_min":94.0882656303,"perigee_km":472.32249626091,"apogee_km":476.44908548557,"semimajor_km":6852.5227908732,"source":"CELESTRAK","updated_at":"2026-05-25T13:38:02.944191Z"}}